Time,TemperatureF,DewpointF,PressureIn,WindDirection,WindDirectionDegrees,WindSpeedMPH,WindSpeedGustMPH,Humidity,HourlyPrecipIn,Conditions,Clouds,dailyrainin,SolarRadiationWatts/m^2,SoftwareType,DateUTC
2017-04-30 00:00:00,75.2,72.4,30.00,WSW,251,2.0,2.0,91,0.00,,,0.00,0,Wunderground v.1.15,2017-04-30 05:00:00,
2017-04-30 00:05:00,75.2,72.4,30.00,SSW,199,1.0,3.0,91,0.00,,,0.00,0,Wunderground v.1.15,2017-04-30 05:05:00,
2017-04-30 00:11:00,75.1,72.3,30.01,SE,136,1.0,4.0,91,0.00,,,0.00,0,Wunderground v.1.15,2017-04-30 05:11:00,
2017-04-30 00:16:00,75.2,72.4,30.00,SSE,161,2.0,4.0,91,0.00,,,0.00,0,Wunderground v.1.15,2017-04-30 05:16:00,
2017-04-30 00:22:00,75.1,72.0,30.00,SSE,161,1.0,1.0,90,0.00,,,0.00,0,Wunderground v.1.15,2017-04-30 05:22:00,
2017-04-30 00:27:00,75.0,72.2,30.00,South,173,1.0,2.0,91,0.00,,,0.00,0,Wunderground v.1.15,2017-04-30 05:27:00,
2017-04-30 00:32:00,75.0,72.2,30.00,SE,134,1.0,2.0,91,0.00,,,0.00,0,Wunderground v.1.15,2017-04-30 05:32:00,
2017-04-30 00:38:00,75.0,72.2,30.00,South,175,1.0,2.0,91,0.00,,,0.00,0,Wunderground v.1.15,2017-04-30 05:38:00,
2017-04-30 00:44:00,75.1,72.0,29.99,SSE,161,2.0,4.0,90,0.00,,,0.00,0,Wunderground v.1.15,2017-04-30 05:44:00,
2017-04-30 00:50:00,75.1,72.0,29.99,SSE,150,2.0,4.0,90,0.00,,,0.00,0,Wunderground v.1.15,2017-04-30 05:50:00,
2017-04-30 00:56:00,75.1,72.0,29.99,SE,128,2.0,3.0,90,0.00,,,0.00,0,Wunderground v.1.15,2017-04-30 05:56:00,
2017-04-30 01:02:00,75.0,71.9,30.00,SSE,152,2.0,3.0,90,0.00,,,0.00,0,Wunderground v.1.15,2017-04-30 06:02:00,
2017-04-30 01:08:00,75.0,71.9,29.99,SSE,149,2.0,3.0,90,0.00,,,0.00,0,Wunderground v.1.15,2017-04-30 06:08:00,
2017-04-30 01:13:00,74.9,71.8,29.99,SE,137,2.0,2.0,90,0.00,,,0.00,0,Wunderground v.1.15,2017-04-30 06:13:00,
2017-04-30 01:19:00,74.9,72.1,29.99,SE,142,2.0,6.0,91,0.00,,,0.00,0,Wunderground v.1.15,2017-04-30 06:19:00,
2017-04-30 01:25:00,74.9,72.1,29.98,SSE,167,2.0,3.0,91,0.00,,,0.00,0,Wunderground v.1.15,2017-04-30 06:25:00,
2017-04-30 01:30:00,74.9,72.1,29.98,South,191,2.0,4.0,91,0.00,,,0.00,0,Wunderground v.1.15,2017-04-30 06:30:00,
2017-04-30 01:36:00,74.8,72.0,29.98,SE,126,2.0,4.0,91,0.00,,,0.00,0,Wunderground v.1.15,2017-04-30 06:36:00,
2017-04-30 01:41:00,74.8,72.0,29.99,SE,141,2.0,4.0,91,0.00,,,0.00,0,Wunderground v.1.15,2017-04-30 06:41:00,
2017-04-30 01:48:00,74.7,71.9,29.98,SE,143,1.0,2.0,91,0.00,,,0.00,0,Wunderground v.1.15,2017-04-30 06:48:00,
2017-04-30 01:54:00,74.6,71.8,29.98,ESE,105,2.0,2.0,91,0.00,,,0.00,0,Wunderground v.1.15,2017-04-30 06:54:00,
2017-04-30 02:00:00,74.5,72.0,29.98,ESE,117,2.0,2.0,92,0.00,,,0.00,0,Wunderground v.1.15,2017-04-30 07:00:00,
2017-04-30 02:05:00,74.4,71.9,29.97,SE,136,2.0,7.0,92,0.00,,,0.00,0,Wunderground v.1.15,2017-04-30 07:05:00,
2017-04-30 02:11:00,74.4,71.9,29.97,East,99,2.0,6.0,92,0.00,,,0.00,0,Wunderground v.1.15,2017-04-30 07:11:00,
2017-04-30 02:16:00,74.4,71.6,29.97,SSE,167,1.0,6.0,91,0.00,,,0.00,0,Wunderground v.1.15,2017-04-30 07:16:00,
2017-04-30 02:22:00,74.4,71.6,29.96,SE,130,2.0,2.0,91,0.00,,,0.00,0,Wunderground v.1.15,2017-04-30 07:22:00,
2017-04-30 02:29:00,74.4,71.6,29.96,ESE,106,2.0,4.0,91,0.00,,,0.00,0,Wunderground v.1.15,2017-04-30 07:29:00,
2017-04-30 02:34:00,74.5,71.7,29.97,SE,127,3.0,6.0,91,0.00,,,0.00,0,Wunderground v.1.15,2017-04-30 07:34:00,
2017-04-30 02:39:00,74.6,71.8,29.96,South,181,4.0,6.0,91,0.00,,,0.00,0,Wunderground v.1.15,2017-04-30 07:39:00,
2017-04-30 02:46:00,74.7,71.9,29.96,SE,136,4.0,5.0,91,0.00,,,0.00,0,Wunderground v.1.15,2017-04-30 07:46:00,
2017-04-30 02:52:00,74.8,72.0,29.96,ESE,113,4.0,8.0,91,0.00,,,0.00,0,Wunderground v.1.15,2017-04-30 07:52:00,
2017-04-30 02:57:00,74.8,72.0,29.95,SE,132,4.0,8.0,91,0.00,,,0.00,0,Wunderground v.1.15,2017-04-30 07:57:00,
2017-04-30 03:03:00,74.8,72.0,29.95,SSE,163,5.0,9.0,91,0.00,,,0.00,0,Wunderground v.1.15,2017-04-30 08:03:00,
2017-04-30 03:08:00,74.8,72.0,29.95,SE,142,5.0,12.0,91,0.00,,,0.00,0,Wunderground v.1.15,2017-04-30 08:08:00,
2017-04-30 03:13:00,74.8,72.0,29.95,SE,130,5.0,9.0,91,0.00,,,0.00,0,Wunderground v.1.15,2017-04-30 08:13:00,
2017-04-30 03:19:00,74.7,71.9,29.95,ESE,121,4.0,9.0,91,0.00,,,0.00,0,Wunderground v.1.15,2017-04-30 08:19:00,
2017-04-30 03:24:00,74.6,71.8,29.96,ESE,109,4.0,8.0,91,0.00,,,0.00,0,Wunderground v.1.15,2017-04-30 08:24:00,
2017-04-30 03:30:00,74.6,71.8,29.96,SE,128,5.0,10.0,91,0.00,,,0.00,0,Wunderground v.1.15,2017-04-30 08:30:00,
2017-04-30 03:36:00,74.5,71.7,29.96,SSE,162,4.0,5.0,91,0.00,,,0.00,0,Wunderground v.1.15,2017-04-30 08:36:00,
2017-04-30 03:41:00,74.5,72.0,29.96,ESE,120,3.0,4.0,92,0.00,,,0.00,0,Wunderground v.1.15,2017-04-30 08:41:00,
2017-04-30 03:47:00,74.6,72.1,29.96,East,98,4.0,10.0,92,0.00,,,0.00,0,Wunderground v.1.15,2017-04-30 08:47:00,
2017-04-30 03:52:00,74.7,72.2,29.96,ESE,115,5.0,8.0,92,0.00,,,0.00,0,Wunderground v.1.15,2017-04-30 08:52:00,
2017-04-30 03:57:00,74.7,72.2,29.95,ESE,106,5.0,8.0,92,0.00,,,0.00,0,Wunderground v.1.15,2017-04-30 08:57:00,
2017-04-30 04:03:00,74.8,72.3,29.96,SE,138,5.0,5.0,92,0.00,,,0.00,0,Wunderground v.1.15,2017-04-30 09:03:00,
2017-04-30 04:09:00,74.8,72.3,29.94,SE,131,4.0,9.0,92,0.00,,,0.00,0,Wunderground v.1.15,2017-04-30 09:09:00,
2017-04-30 04:14:00,74.9,72.4,29.94,SSW,209,6.0,12.0,92,0.00,,,0.00,0,Wunderground v.1.15,2017-04-30 09:14:00,
2017-04-30 04:20:00,74.8,72.3,29.94,SE,144,6.0,6.0,92,0.00,,,0.00,0,Wunderground v.1.15,2017-04-30 09:20:00,